RH
98 98 99 98 89 79 90 90 84 84 87 87 85 82 79 74 68 61 56 49 27 17 14 13 14 15 16 17 19 19 20 21 22 23 23 23 23 24
99 98 99 99 93 93 89 88 90 87 73 82 83 79 71 61 55 49 42 39 37 34 27 23 16 16 17 18 20 21 22 23 23 23 24 25 27 27
98 98 98 99 98 98 95 90 90 88 72 67 67 65 51 43 39 33 28 26 26 27 27 26 20 17 18 19 20 21 23 24 26 27 30 31 31 34
97 98 98 98 98 98 96 96 94 88 82 77 68 61 58 50 42 34 28 24 23 23 25 24 22 20 20 20 21 22 24 25 28 30 32 30 29 33
97 97 97 97 97 97 97 97 94 90 83 74 69 67 58 56 52 42 36 29 26 25 30 25 24 23 23 23 24 25 30 35 36 36 30 29 30 37
90 93 95 97 97 97 96 97 97 90 85 75 67 67 59 61 56 51 47 38 32 30 29 30 27 26 27 28 30 36 42 44 45 43 41 40 41 42
94 94 92 92 96 96 96 96 96 96 90 82 71 67 62 62 59 56 55 51 47 45 37 39 35 39 44 38 42 45 48 54 55 51 48 46 46 46
87 97 96 92 90 91 93 90 89 88 87 83 77 70 65 64 62 59 59 57 56 54 56 57 55 48 53 60 67 65 63 60 55 53 51 53 54 56
90 83 80 87 94 94 89 86 86 85 85 81 78 75 71 66 64 64 63 62 61 60 61 67 70 71 73 73 73 70 70 68 64 62 63 62 61 62
83 87 91 89 91 92 90 87 86 84 80 83 81 80 77 75 73 71 67 67 71 73 72 71 72 73 75 76 75 74 75 75 74 71 70 68 67 66
79 81 82 88 93 93 93 94 96 93 87 84 83 81 82 81 79 78 81 86 87 86 88 88 88 92 91 89 88 87 85 83 80 77 75 74 73 72
66 72 82 83 86 90 92 95 96 98 97 98 97 96 91 86 87 90 93 95 96 97 96 96 96 96 93 89 88 87 85 83 81 78 77 79 77 74
61 65 68 75 82 87 89 92 95 98 98 97 97 98 98 97 98 98 98 97 97 97 97 96 95 94 92 88 87 85 85 84 82 78 75 72 75 79
41 54 62 67 74 80 84 87 89 96 96 97 98 98 98 98 98 98 98 97 98 98 99 98 96 96 95 93 89 86 85 85 83 81 79 77 76 76
31 34 38 52 68 79 83 87 92 92 93 96 98 98 98 99 99 98 98 98 98 98 98 98 97 96 95 90 89 87 86 82 80 78 77 77 78 77
13 18 28 32 36 43 67 80 84 91 94 92 93 97 98 99 99 99 99 99 99 99 99 98 97 98 95 92 92 89 88 86 85 83 81 79 77 75
26 23 20 17 20 30 34 43 69 86 91 91 90 90 97 99 99 99 99 99 99 99 97 97 98 98 97 97 94 93 90 89 89 88 86 83 78 75
55 52 45 44 37 28 22 24 37 48 68 89 92 91 93 96 98 99 99 99 99 99 99 99 99 99 98 98 96 95 95 93 91 90 88 85 79 76
55 57 56 54 53 52 49 40 38 34 32 43 52 71 86 90 91 96 97 98 97 97 97 96 97 98 98 96 95 94 96 94 92 87 82 78 75 76
55 55 57 58 57 57 56 52 48 47 48 47 46 42 37 38 43 53 61 67 72 76 80 85 88 90 92 90 88 85 84 85 84 80 77 74 72 70
49 50 51 53 59 62 66 66 61 62 60 55 54 56 56 54 50 49 51 53 55 53 51 50 51 57 57 57 56 54 52 53 57 61 64 65 66 63
48 48 47 47 50 57 70 72 69 68 69 67 68 69 69 66 63 63 60 56 53 52 50 48 48 49 50 50 47 46 47 47 50 52 53 55 54 50
56 58 60 60 56 50 48 63 70 71 71 71 73 73 72 71 70 70 68 63 57 54 52 49 48 47 45 43 46 45 42 41 44 44 39 45 48 46